AEE317 UUWW-EYVI

Flight info

Callsign AEE317
Flight time 1h 18m
Altitude 38000
Route POKAG3Z POKAG N858 BENIM L29 LAFAT
Aircraft B737/M-SDE2E3FGHIRWXY/LB1

Departure

Time 2026-05-05 09:58
Airport Vnukovo International Airport (UUWW)

Arrival

Time 2026-05-05 11:16
Airport Vilnius International Airport (EYVI)
Time Latitude Longitude Altitude Speed Heading
2026-05-05 09:30 55.60148 37.28148 679 ft 0 kts 36°
2026-05-05 09:49 55.60142 37.28141 679 ft 4 kts 36°
2026-05-05 09:49 55.60120 37.28113 679 ft 4 kts 36°
2026-05-05 09:49 55.60107 37.28096 677 ft 0 kts 36°
2026-05-05 09:53 55.60108 37.28097 677 ft 0 kts 41°
2026-05-05 09:53 55.60107 37.28112 679 ft 2 kts 102°
2026-05-05 09:53 55.60093 37.28156 676 ft 7 kts 123°
2026-05-05 09:53 55.60080 37.28261 678 ft 11 kts 85°
2026-05-05 09:54 55.60092 37.28410 678 ft 13 kts 71°
2026-05-05 09:54 55.60155 37.28546 678 ft 15 kts 46°
2026-05-05 09:54 55.60209 37.28684 678 ft 12 kts 94°
2026-05-05 09:54 55.60176 37.28771 678 ft 9 kts 132°
2026-05-05 09:55 55.60125 37.28854 678 ft 9 kts 146°
2026-05-05 09:55 55.60059 37.28891 677 ft 11 kts 168°
2026-05-05 09:55 55.59995 37.28919 678 ft 9 kts 166°
2026-05-05 09:55 55.59930 37.28950 684 ft 9 kts 168°
2026-05-05 09:56 55.59885 37.28966 685 ft 5 kts 167°
2026-05-05 09:56 55.59854 37.28979 688 ft 5 kts 166°
2026-05-05 09:56 55.59816 37.28987 691 ft 6 kts 185°
2026-05-05 09:56 55.59782 37.28933 691 ft 6 kts 245°
2026-05-05 09:57 55.59781 37.28929 691 ft 0 kts 246°
2026-05-05 09:57 55.59778 37.28917 691 ft 11 kts 246°
2026-05-05 09:57 55.59657 37.28381 684 ft 82 kts 248°
2026-05-05 09:57 55.59369 37.27101 668 ft 140 kts 249°
2026-05-05 09:58 55.58984 37.25329 974 ft 160 kts 251°
2026-05-05 09:58 55.58577 37.23358 1411 ft 183 kts 246°
2026-05-05 09:58 55.57917 37.21464 2292 ft 175 kts 227°
2026-05-05 09:58 55.57040 37.19952 3110 ft 186 kts 227°
2026-05-05 09:59 55.56136 37.18053 3318 ft 217 kts 238°
2026-05-05 09:59 55.55308 37.15798 3949 ft 224 kts 239°
2026-05-05 09:59 55.54822 37.13209 4784 ft 224 kts 264°
2026-05-05 09:59 55.54772 37.10458 5676 ft 225 kts 269°
2026-05-05 10:00 55.54800 37.07691 6514 ft 228 kts 276°
2026-05-05 10:00 55.55381 37.05070 7385 ft 235 kts 304°
2026-05-05 10:00 55.56657 37.03163 8150 ft 252 kts 332°
2026-05-05 10:00 55.58422 37.02508 8924 ft 267 kts 353°
2026-05-05 10:01 55.60303 37.02486 9613 ft 273 kts 355°
2026-05-05 10:01 55.62212 37.02529 9952 ft 273 kts 356°
2026-05-05 10:01 55.64118 37.02517 9989 ft 273 kts 348°
2026-05-05 10:01 55.65943 37.01525 10031 ft 282 kts 332°
2026-05-05 10:02 55.67777 37.00118 10017 ft 291 kts 332°
2026-05-05 10:02 55.69607 36.98735 9996 ft 290 kts 332°
2026-05-05 10:02 55.71458 36.97363 10000 ft 288 kts 333°
2026-05-05 10:02 55.73303 36.96003 10010 ft 286 kts 333°
2026-05-05 10:03 55.75139 36.94617 10161 ft 290 kts 332°
2026-05-05 10:03 55.77013 36.93178 11004 ft 293 kts 332°
2026-05-05 10:03 55.78887 36.91742 12028 ft 292 kts 332°
2026-05-05 10:03 55.80680 36.90050 12561 ft 290 kts 315°
2026-05-05 10:04 55.81910 36.87248 12841 ft 296 kts 293°
2026-05-05 10:04 55.82538 36.83703 13406 ft 305 kts 281°
2026-05-05 10:04 55.82972 36.79997 13809 ft 307 kts 279°
2026-05-05 10:04 55.83297 36.76246 13812 ft 307 kts 269°
2026-05-05 10:05 55.82978 36.72501 13951 ft 310 kts 252°
2026-05-05 10:05 55.82103 36.68971 14739 ft 313 kts 244°
2026-05-05 10:05 55.81121 36.65519 15721 ft 313 kts 244°
2026-05-05 10:05 55.80127 36.62056 16584 ft 316 kts 244°
2026-05-05 10:06 55.79147 36.58597 17424 ft 319 kts 244°
2026-05-05 10:06 55.78149 36.55046 18209 ft 324 kts 244°
2026-05-05 10:06 55.77142 36.51455 19007 ft 327 kts 244°
2026-05-05 10:06 55.76168 36.47782 19746 ft 331 kts 250°
2026-05-05 10:07 55.75477 36.43764 19984 ft 351 kts 256°
2026-05-05 10:07 55.74900 36.39458 20341 ft 364 kts 257°
2026-05-05 10:07 55.74341 36.35026 20964 ft 369 kts 257°
2026-05-05 10:07 55.73775 36.30574 21687 ft 371 kts 257°
2026-05-05 10:08 55.73189 36.26085 22400 ft 373 kts 256°
2026-05-05 10:08 55.72584 36.21567 22994 ft 378 kts 256°
2026-05-05 10:08 55.72175 36.18561 23389 ft 381 kts 256°
2026-05-05 10:08 55.71405 36.12956 24134 ft 384 kts 256°
2026-05-05 10:09 55.70790 36.08521 24676 ft 387 kts 256°
2026-05-05 10:09 55.70140 36.03864 25217 ft 390 kts 256°
2026-05-05 10:09 55.69498 35.99278 25756 ft 393 kts 256°
2026-05-05 10:09 55.68828 35.94513 26290 ft 395 kts 256°
2026-05-05 10:10 55.68160 35.89775 26816 ft 398 kts 256°
2026-05-05 10:10 55.67486 35.85005 27303 ft 400 kts 256°
2026-05-05 10:10 55.66807 35.80211 27779 ft 403 kts 256°
2026-05-05 10:10 55.66121 35.75387 28226 ft 405 kts 256°
2026-05-05 10:11 55.65430 35.70546 28660 ft 408 kts 256°
2026-05-05 10:11 55.64740 35.65715 29094 ft 410 kts 256°
2026-05-05 10:11 55.64037 35.60815 29526 ft 411 kts 256°
2026-05-05 10:11 55.63335 35.55921 30120 ft 408 kts 256°
2026-05-05 10:12 55.62831 35.51002 30735 ft 405 kts 262°
2026-05-05 10:12 55.62552 35.46120 31266 ft 403 kts 264°
2026-05-05 10:12 55.62323 35.41166 31713 ft 403 kts 264°
2026-05-05 10:12 55.62091 35.36225 32129 ft 403 kts 264°
2026-05-05 10:13 55.61838 35.31291 32582 ft 402 kts 263°
2026-05-05 10:13 55.61567 35.26369 33026 ft 400 kts 263°
2026-05-05 10:13 55.61287 35.21499 33470 ft 399 kts 263°
2026-05-05 10:13 55.61001 35.16616 33872 ft 398 kts 263°
2026-05-05 10:14 55.60712 35.11746 34274 ft 397 kts 263°
2026-05-05 10:14 55.60423 35.06894 34602 ft 397 kts 263°
2026-05-05 10:14 55.60136 35.02029 34861 ft 399 kts 263°
2026-05-05 10:14 55.59847 34.97134 35147 ft 400 kts 263°
2026-05-05 10:15 55.59559 34.92251 35477 ft 399 kts 263°
2026-05-05 10:15 55.59269 34.87366 35803 ft 398 kts 263°
2026-05-05 10:15 55.58676 34.77488 35865 ft 411 kts 263°
2026-05-05 10:16 55.58054 34.67310 35883 ft 422 kts 263°
2026-05-05 10:16 55.57422 34.57065 35866 ft 421 kts 262°
2026-05-05 10:17 55.56779 34.46794 35873 ft 419 kts 262°
2026-05-05 10:17 55.56129 34.36567 35872 ft 418 kts 262°
2026-05-05 10:18 55.55474 34.26385 35860 ft 417 kts 262°
2026-05-05 10:18 55.54811 34.16228 35864 ft 416 kts 262°
2026-05-05 10:19 55.54143 34.06111 35875 ft 416 kts 262°
2026-05-05 10:19 55.53580 33.97675 35875 ft 416 kts 262°
2026-05-05 10:20 55.52895 33.87544 35874 ft 416 kts 262°
2026-05-05 10:20 55.52203 33.77405 35878 ft 416 kts 262°
2026-05-05 10:21 55.51500 33.67266 35864 ft 417 kts 262°
2026-05-05 10:21 55.50383 33.57257 35881 ft 416 kts 255°
2026-05-05 10:22 55.48903 33.47372 35869 ft 417 kts 255°
2026-05-05 10:22 55.47405 33.37455 35871 ft 418 kts 255°
2026-05-05 10:23 55.45938 33.27590 35874 ft 419 kts 255°
2026-05-05 10:23 55.44466 33.17651 35863 ft 419 kts 255°
2026-05-05 10:24 55.42991 33.07716 35868 ft 420 kts 255°
2026-05-05 10:24 55.41504 32.97770 35873 ft 420 kts 255°
2026-05-05 10:25 55.40006 32.87820 35872 ft 420 kts 255°
2026-05-05 10:25 55.38504 32.77902 35868 ft 420 kts 255°
2026-05-05 10:26 55.36993 32.67983 35873 ft 420 kts 255°
2026-05-05 10:26 55.35474 32.58070 35872 ft 420 kts 255°
2026-05-05 10:27 55.33948 32.48172 35864 ft 420 kts 255°
2026-05-05 10:27 55.32414 32.38281 35873 ft 420 kts 254°
2026-05-05 10:28 55.30872 32.28402 35888 ft 419 kts 254°
2026-05-05 10:28 55.29324 32.18542 35868 ft 419 kts 254°
2026-05-05 10:29 55.27770 32.08692 35884 ft 419 kts 254°
2026-05-05 10:29 55.26205 31.98843 35867 ft 419 kts 254°
2026-05-05 10:30 55.24633 31.88997 35872 ft 419 kts 254°
2026-05-05 10:30 55.23064 31.79232 35881 ft 419 kts 254°
2026-05-05 10:31 55.21475 31.69403 35871 ft 419 kts 254°
2026-05-05 10:31 55.19879 31.59582 35884 ft 419 kts 254°
2026-05-05 10:32 55.18279 31.49791 35874 ft 419 kts 254°
2026-05-05 10:32 55.16668 31.39986 35879 ft 419 kts 253°
2026-05-05 10:33 55.15048 31.30188 35883 ft 420 kts 253°
2026-05-05 10:33 55.13420 31.20382 35863 ft 420 kts 253°
2026-05-05 10:34 55.11784 31.10593 35889 ft 420 kts 253°
2026-05-05 10:34 55.10291 31.00738 35885 ft 420 kts 261°
2026-05-05 10:35 55.10123 30.90529 35896 ft 423 kts 273°
2026-05-05 10:35 55.10670 30.80312 35886 ft 423 kts 274°
2026-05-05 10:36 55.11202 30.70077 35887 ft 423 kts 273°
2026-05-05 10:36 55.11697 30.59849 35889 ft 423 kts 273°
2026-05-05 10:37 55.12176 30.49618 35889 ft 422 kts 273°
2026-05-05 10:37 55.12647 30.39390 35887 ft 422 kts 273°
2026-05-05 10:38 55.12999 30.29231 35887 ft 421 kts 270°
2026-05-05 10:38 55.13115 30.19010 35887 ft 420 kts 269°
2026-05-05 10:39 55.13217 30.08866 35891 ft 420 kts 270°
2026-05-05 10:39 55.13341 29.98651 35889 ft 420 kts 270°
2026-05-05 10:40 55.13469 29.88450 35887 ft 420 kts 270°
2026-05-05 10:40 55.13590 29.78255 35865 ft 419 kts 270°
2026-05-05 10:41 55.13702 29.68068 35881 ft 419 kts 270°
2026-05-05 10:41 55.13806 29.57891 35881 ft 419 kts 270°
2026-05-05 10:42 55.13946 29.42626 35883 ft 419 kts 270°
2026-05-05 10:43 55.14033 29.32442 35881 ft 419 kts 270°
2026-05-05 10:43 55.14150 29.22259 35882 ft 419 kts 270°
2026-05-05 10:44 55.14250 29.12087 35867 ft 419 kts 269°
2026-05-05 10:44 55.14319 29.01973 35879 ft 419 kts 269°
2026-05-05 10:45 55.14380 28.91798 35882 ft 419 kts 269°
2026-05-05 10:45 55.14437 28.81621 35883 ft 419 kts 269°
2026-05-05 10:46 55.14484 28.71446 35882 ft 419 kts 269°
2026-05-05 10:46 55.14524 28.61256 35875 ft 419 kts 269°
2026-05-05 10:47 55.14556 28.51082 35885 ft 418 kts 269°
2026-05-05 10:47 55.14579 28.40909 35869 ft 418 kts 269°
2026-05-05 10:48 55.14596 28.30746 35880 ft 418 kts 269°
2026-05-05 10:48 55.14456 28.20634 35869 ft 416 kts 262°
2026-05-05 10:49 55.13325 28.10716 35881 ft 416 kts 258°
2026-05-05 10:49 55.12113 28.00816 35875 ft 416 kts 258°
2026-05-05 10:50 55.10935 27.91026 35894 ft 416 kts 258°
2026-05-05 10:50 55.09754 27.81163 35885 ft 416 kts 258°
2026-05-05 10:51 55.08588 27.71474 35577 ft 400 kts 258°
2026-05-05 10:51 55.08015 27.66743 35069 ft 397 kts 258°
2026-05-05 10:51 55.07442 27.62029 34596 ft 393 kts 258°
2026-05-05 10:51 55.06876 27.57383 34111 ft 393 kts 258°
2026-05-05 10:52 55.06304 27.52692 33649 ft 395 kts 258°
2026-05-05 10:52 55.05727 27.47991 33177 ft 397 kts 258°
2026-05-05 10:52 55.05149 27.43302 32685 ft 394 kts 258°
2026-05-05 10:52 55.04744 27.40045 32356 ft 391 kts 258°
2026-05-05 10:53 55.04436 27.37613 32132 ft 389 kts 258°
2026-05-05 10:53 55.03870 27.33042 31663 ft 385 kts 258°
2026-05-05 10:53 55.03291 27.28495 31200 ft 382 kts 257°
2026-05-05 10:53 55.02711 27.23992 30742 ft 379 kts 257°
2026-05-05 10:54 55.02136 27.19529 30285 ft 376 kts 257°
2026-05-05 10:54 55.01564 27.15091 29835 ft 373 kts 257°
2026-05-05 10:54 55.00997 27.10704 29379 ft 371 kts 257°
2026-05-05 10:54 55.00432 27.06329 28902 ft 369 kts 257°
2026-05-05 10:55 54.99869 27.01975 28418 ft 368 kts 257°
2026-05-05 10:55 54.99306 26.97642 27939 ft 366 kts 257°
2026-05-05 10:55 54.98745 26.93330 27452 ft 364 kts 257°
2026-05-05 10:55 54.98185 26.89033 26974 ft 363 kts 257°
2026-05-05 10:56 54.97625 26.84755 26492 ft 361 kts 257°
2026-05-05 10:56 54.97067 26.80509 26008 ft 359 kts 257°
2026-05-05 10:56 54.96510 26.76279 25524 ft 356 kts 257°
2026-05-05 10:56 54.95958 26.72102 25046 ft 351 kts 257°
2026-05-05 10:57 54.95414 26.67992 24573 ft 346 kts 257°
2026-05-05 10:57 54.94906 26.64168 24134 ft 343 kts 257°
2026-05-05 10:57 54.94365 26.60102 23667 ft 340 kts 257°
2026-05-05 10:57 54.93887 26.56525 23247 ft 338 kts 257°
2026-05-05 10:58 54.93446 26.53226 22869 ft 335 kts 257°
2026-05-05 10:58 54.92917 26.49286 22418 ft 333 kts 257°
2026-05-05 10:58 54.92391 26.45372 21954 ft 331 kts 257°
2026-05-05 10:58 54.91869 26.41496 21501 ft 329 kts 257°
2026-05-05 10:59 54.91347 26.37634 21039 ft 328 kts 257°
2026-05-05 10:59 54.90828 26.33800 20588 ft 327 kts 257°
2026-05-05 10:59 54.90308 26.29967 20109 ft 325 kts 256°
2026-05-05 10:59 54.89789 26.26156 19665 ft 324 kts 256°
2026-05-05 11:00 54.89342 26.22888 19269 ft 323 kts 256°
2026-05-05 11:00 54.88867 26.19419 18849 ft 322 kts 256°
2026-05-05 11:00 54.88393 26.15972 18429 ft 320 kts 256°
2026-05-05 11:00 54.87991 26.13060 18073 ft 319 kts 256°
2026-05-05 11:01 54.87477 26.09330 17619 ft 317 kts 256°
2026-05-05 11:01 54.86966 26.05620 17169 ft 315 kts 256°
2026-05-05 11:01 54.86457 26.01943 16712 ft 311 kts 256°
2026-05-05 11:01 54.86011 25.98731 16317 ft 309 kts 256°
2026-05-05 11:02 54.85510 25.95129 15871 ft 306 kts 256°
2026-05-05 11:02 54.85016 25.91576 15426 ft 303 kts 256°
2026-05-05 11:02 54.84525 25.88057 14996 ft 300 kts 256°
2026-05-05 11:02 54.84038 25.84581 14553 ft 297 kts 256°
2026-05-05 11:03 54.83551 25.81117 14117 ft 294 kts 256°
2026-05-05 11:03 54.83041 25.77694 13685 ft 290 kts 251°
2026-05-05 11:03 54.82250 25.74541 13260 ft 288 kts 243°
2026-05-05 11:03 54.81326 25.71475 12833 ft 286 kts 242°
2026-05-05 11:04 54.80405 25.68437 12416 ft 283 kts 243°
2026-05-05 11:04 54.79508 25.65416 11998 ft 282 kts 243°
2026-05-05 11:04 54.78624 25.62396 11585 ft 280 kts 243°
2026-05-05 11:04 54.77750 25.59391 11161 ft 278 kts 243°
2026-05-05 11:05 54.76785 25.56544 10963 ft 269 kts 230°
2026-05-05 11:05 54.75890 25.55084 10764 ft 267 kts 219°
2026-05-05 11:05 54.73662 25.53091 10292 ft 273 kts 206°
2026-05-05 11:05 54.72495 25.52271 10050 ft 272 kts 205°
2026-05-05 11:06 54.70751 25.51078 9750 ft 268 kts 205°
2026-05-05 11:06 54.69019 25.49896 9391 ft 266 kts 205°
2026-05-05 11:06 54.67305 25.48719 9039 ft 264 kts 205°
2026-05-05 11:06 54.65607 25.47551 8692 ft 262 kts 205°
2026-05-05 11:07 54.63924 25.46384 8356 ft 259 kts 205°
2026-05-05 11:07 54.62262 25.45224 8006 ft 257 kts 205°
2026-05-05 11:07 54.60605 25.44069 7656 ft 256 kts 205°
2026-05-05 11:07 54.58959 25.42927 7318 ft 254 kts 205°
2026-05-05 11:08 54.57347 25.41805 6991 ft 253 kts 205°
2026-05-05 11:08 54.55718 25.40672 6652 ft 252 kts 204°
2026-05-05 11:08 54.54099 25.39545 6303 ft 252 kts 204°
2026-05-05 11:08 54.52478 25.38419 5974 ft 250 kts 204°
2026-05-05 11:09 54.51001 25.37392 5666 ft 249 kts 204°
2026-05-05 11:09 54.49403 25.36284 5314 ft 245 kts 204°
2026-05-05 11:09 54.47846 25.35201 4980 ft 237 kts 205°
2026-05-05 11:09 54.46448 25.33900 4760 ft 230 kts 213°
2026-05-05 11:10 54.45113 25.32426 4490 ft 220 kts 214°
2026-05-05 11:10 54.43997 25.30740 4250 ft 210 kts 238°
2026-05-05 11:10 54.43508 25.28456 4071 ft 203 kts 262°
2026-05-05 11:10 54.43603 25.26084 3861 ft 198 kts 285°
2026-05-05 11:11 54.44081 25.23927 3641 ft 188 kts 289°
2026-05-05 11:11 54.44539 25.21927 3453 ft 177 kts 289°
2026-05-05 11:11 54.44981 25.19997 3234 ft 169 kts 289°
2026-05-05 11:11 54.45495 25.18218 3048 ft 167 kts 311°
2026-05-05 11:12 54.46581 25.17556 3021 ft 176 kts
2026-05-05 11:12 54.47776 25.18055 2993 ft 176 kts 13°
2026-05-05 11:12 54.48949 25.18630 2978 ft 175 kts 17°
2026-05-05 11:12 54.50093 25.19339 2973 ft 175 kts 19°
2026-05-05 11:13 54.51219 25.20104 2932 ft 177 kts 20°
2026-05-05 11:13 54.52374 25.20906 2723 ft 179 kts 20°
2026-05-05 11:13 54.53511 25.21699 2468 ft 173 kts 20°
2026-05-05 11:13 54.54601 25.22454 2257 ft 168 kts 20°
2026-05-05 11:14 54.55693 25.23215 2034 ft 170 kts 20°
2026-05-05 11:14 54.56783 25.23971 1801 ft 166 kts 19°
2026-05-05 11:14 54.57808 25.24683 1581 ft 152 kts 19°
2026-05-05 11:14 54.58736 25.25330 1403 ft 140 kts 19°
2026-05-05 11:15 54.59626 25.25947 1210 ft 137 kts 19°
2026-05-05 11:15 54.60517 25.26568 1035 ft 140 kts 19°
2026-05-05 11:15 54.61418 25.27193 871 ft 140 kts 20°
2026-05-05 11:15 54.62319 25.27806 686 ft 141 kts 20°
2026-05-05 11:16 54.63200 25.28416 614 ft 127 kts 22°
2026-05-05 11:16 54.63856 25.28875 613 ft 71 kts 21°
2026-05-05 11:16 54.64122 25.29063 613 ft 24 kts 22°
2026-05-05 11:16 54.64258 25.29157 620 ft 21 kts 21°
2026-05-05 11:17 54.64389 25.29247 618 ft 20 kts 21°
2026-05-05 11:17 54.64475 25.29199 617 ft 14 kts 298°
2026-05-05 11:17 54.64495 25.29133 615 ft 0 kts 295°
2026-05-05 11:17 54.64495 25.29132 615 ft 0 kts 295°
2026-05-05 11:18 54.64499 25.29120 621 ft 3 kts 298°
2026-05-05 11:18 54.64510 25.29083 628 ft 4 kts 297°
2026-05-05 11:18 54.64529 25.29019 624 ft 8 kts 296°
2026-05-05 11:18 54.64557 25.28917 617 ft 11 kts 287°
2026-05-05 11:19 54.64548 25.28767 614 ft 14 kts 258°
2026-05-05 11:19 54.64520 25.28614 614 ft 13 kts 245°
2026-05-05 11:19 54.64492 25.28452 625 ft 15 kts 256°
2026-05-05 11:19 54.64473 25.28319 617 ft 6 kts 253°
2026-05-05 11:20 54.64479 25.28294 618 ft 2 kts 317°
2026-05-05 11:20 54.64489 25.28262 614 ft 4 kts 286°
2026-05-05 11:20 54.64491 25.28198 614 ft 4 kts 270°
2026-05-05 11:20 54.64491 25.28168 614 ft 0 kts 270°